Temperature
11 11 11 11 11 11 11 11 11 11 11 11 10 10 10 11 11 11 11 11 11 11 11 11 11 11 11 11 11 11 11 11 10 10 10 10 10 10 10 10 10 10 10
11 10 10 11 11 11 11 11 11 11 11 11 11 10 10 10 10 10 10 10 10 11 10 11 11 10 10 10 10 10 10 10 10 10 9 9 9 9 9 9 9 9 9
11 10 10 10 10 11 11 11 11 11 11 10 10 10 10 10 10 10 10 10 10 10 10 10 10 10 10 10 10 10 10 10 10 10 9 9 9 8 9 9 9 9 9
10 10 10 10 10 10 10 11 11 11 10 10 10 10 10 10 10 10 10 10 10 10 10 10 10 10 10 10 10 10 10 10 10 9 10 9 9 8 8 8 8 8 8
9 9 9 9 10 10 10 10 10 10 10 10 10 10 10 9 10 9 9 9 9 9 10 10 9 9 9 9 9 9 9 9 9 9 9 9 9 9 8 7 7 8 8
9 9 9 9 9 9 9 10 10 10 10 10 10 10 9 9 9 9 9 9 9 9 9 9 9 9 9 9 9 9 9 9 9 9 9 9 9 9 8 8 7 7 7
8 8 8 8 9 9 9 9 9 9 10 9 9 9 9 9 9 9 9 9 9 9 9 9 9 9 9 9 9 8 8 8 8 8 8 8 8 8 8 8 7 6 7
7 7 8 8 8 8 8 9 9 9 9 9 9 9 9 9 9 9 9 9 9 9 9 9 8 8 8 8 8 8 8 8 8 8 8 8 8 8 8 8 7 6 6
7 7 7 7 8 8 8 8 8 8 8 8 8 9 8 8 9 9 9 9 9 9 8 8 8 8 8 8 8 8 8 7 7 7 7 7 7 7 7 7 7 6 5
6 6 6 7 7 7 7 7 7 7 8 8 8 8 8 8 8 8 8 8 8 8 8 8 8 8 8 7 7 7 7 7 7 7 7 7 7 7 7 6 6 6 6
5 5 6 6 7 6 6 7 7 7 7 7 7 7 8 8 8 8 8 8 8 8 8 8 8 7 7 7 7 7 7 7 6 6 6 6 6 6 6 6 6 6 5
5 5 5 6 6 6 6 6 6 6 6 6 6 7 7 7 7 7 7 7 7 7 7 7 7 7 7 7 7 7 6 6 6 6 6 6 6 6 6 6 5 5 5
4 4 5 5 6 6 6 6 6 6 6 6 6 6 6 6 6 7 7 7 7 7 7 7 7 7 7 6 6 6 6 6 6 6 6 6 6 5 5 5 5 5 5
3 4 4 4 5 5 5 5 5 5 5 5 5 6 6 6 6 6 6 6 6 6 6 6 6 6 6 6 6 6 5 5 5 5 5 5 5 5 5 5 5 4 4
3 3 3 3 4 4 4 4 4 4 5 5 5 5 5 5 5 5 5 6 6 6 6 6 6 5 5 5 5 5 5 5 5 5 5 5 5 5 4 4 4 4 4
2 2 3 3 3 3 3 3 4 4 4 4 4 4 5 5 5 5 5 5 5 5 5 5 5 5 5 5 5 5 5 5 4 4 4 4 4 4 4 4 4 3 3
1 2 2 2 3 3 3 3 3 3 3 3 3 4 4 4 4 4 4 4 4 4 4 4 4 4 4 4 4 4 4 4 4 4 4 4 4 4 4 3 3 3 3
1 1 1 2 2 2 3 3 3 3 3 3 3 3 3 3 3 4 4 4 4 4 4 4 4 4 4 4 4 4 4 3 4 4 4 4 4 3 3 3 3 3 2
0 1 1 1 1 2 2 2 2 2 2 2 2 2 3 3 3 3 3 3 3 3 3 3 3 3 3 3 3 3 3 3 3 3 3 3 3 3 3 2 2 2 2
-0 0 0 1 1 1 2 2 2 2 2 2 2 2 2 2 3 3 3 3 3 3 3 3 3 3 3 3 3 3 3 2 2 2 2 2 2 2 2 2 1 1 1
-1 -0 -0 0 1 1 1 1 1 1 1 1 1 1 2 2 2 2 2 2 2 2 2 2 2 2 2 2 2 2 2 2 2 2 2 2 2 2 1 1 1 1 0
-2 -1 -1 -0 -0 0 0 0 0 1 1 1 1 1 1 1 1 1 1 2 2 2 2 2 2 2 2 2 2 2 2 1 1 1 1 1 1 1 1 1 0 0 -0
-2 -2 -2 -1 -1 -1 -0 -0 -0 -0 0 0 0 0 0 1 1 1 1 1 1 1 1 1 1 1 1 1 1 1 1 1 1 1 1 1 1 0 0 -0 -0 -1 -1
-3 -3 -2 -2 -2 -1 -1 -1 -1 -1 -1 -0 -0 -0 -0 -0 -0 -0 -0 0 0 0 0 0 0 0 0 0 0 0 0 -0 -0 -0 -0 -0 -0 -0 -1 -1 -1 -1 -1
-4 -4 -3 -3 -3 -2 -2 -2 -2 -1 -1 -1 -1 -1 -1 -1 -1 -1 -1 -1 -1 -0 -0 -0 -0 -0 -0 -0 -0 -0 -0 -1 -1 -1 -1 -1 -1 -1 -2 -2 -2 -2 -2
-4 -4 -4 -4 -4 -3 -3 -3 -3 -2 -2 -2 -2 -2 -2 -2 -2 -2 -2 -2 -1 -1 -1 -1 -1 -1 -1 -1 -1 -1 -1 -1 -1 -2 -2 -2 -2 -2 -2 -2 -3 -3 -3
Wind_Speed
10 9 9 9 9 9 10 11 10 10 9 7 7 7 7 6 6 6 9 10 10 10 9 7 8 7 7 8 9 8 8 7 6 5 4 4 4 3 3 3 3 3 3
8 8 8 8 9 10 10 10 11 11 10 8 7 6 6 6 6 6 7 10 10 10 9 9 8 8 7 9 9 9 6 5 5 5 4 3 3 2 2 2 2 2 2
10 9 8 8 9 9 10 10 11 12 11 10 7 6 5 4 5 6 6 8 10 10 9 10 9 8 8 8 10 10 9 7 5 3 3 3 3 2 2 1 1 1 1
9 9 8 9 9 9 9 10 10 11 11 10 10 10 9 8 8 7 6 7 9 9 10 10 10 9 8 9 9 9 8 9 7 4 1 1 2 2 2 2 2 1 0
8 8 8 8 8 8 8 9 10 10 10 10 11 11 10 8 7 7 7 7 7 8 9 10 10 9 8 9 9 8 7 7 7 5 3 2 2 2 2 3 3 2 1
6 6 6 6 6 6 7 8 9 9 10 10 11 12 12 10 9 9 8 7 6 6 8 9 9 9 9 9 9 8 8 7 6 5 4 4 3 3 3 3 3 3 2
3 4 5 5 5 6 7 8 9 9 9 10 10 11 11 12 11 10 9 8 6 6 8 8 9 9 9 9 9 8 7 7 7 6 4 3 2 2 2 3 2 2 2
2 3 4 5 6 6 7 8 9 8 9 9 9 9 10 8 8 9 8 8 7 7 8 8 9 9 9 9 9 7 7 7 7 7 6 4 3 3 3 3 3 2 2
1 1 2 3 4 6 7 8 9 8 8 9 9 8 9 8 8 8 8 6 6 6 8 9 9 9 9 9 9 7 7 7 6 6 6 4 3 3 3 3 3 3 3
1 1 1 1 2 4 5 6 8 8 8 8 8 7 8 8 8 8 8 7 7 6 8 8 8 8 9 9 8 7 7 7 6 5 6 5 4 3 3 3 3 3 3
1 1 0 1 2 3 3 5 6 6 6 7 7 7 7 7 7 7 7 7 7 7 8 8 8 8 8 8 8 8 8 7 6 6 6 6 5 4 3 3 3 3 3
1 1 0 1 2 2 3 3 4 5 6 6 6 6 6 6 6 7 7 7 7 7 7 8 8 8 8 8 8 8 8 8 7 7 6 6 4 5 4 3 3 3 3
2 1 1 1 1 2 2 3 3 4 5 6 6 6 6 6 6 6 6 6 7 7 7 7 8 8 8 8 8 8 8 7 7 7 7 6 6 5 4 4 3 3 2
2 2 1 1 1 1 2 2 2 3 4 5 6 6 6 6 6 6 6 6 7 7 7 7 7 7 7 7 8 8 7 7 6 6 6 6 6 6 5 4 4 3 3
3 2 1 1 1 1 1 2 2 2 4 5 5 5 5 5 5 5 6 6 6 6 6 7 7 7 6 6 7 7 7 7 6 6 6 5 5 5 5 4 4 4 3
3 2 1 1 0 1 1 1 1 2 3 5 5 5 5 5 5 5 5 5 6 6 6 6 7 7 6 7 8 7 7 7 7 6 5 5 6 6 5 5 5 6 6
3 2 2 1 0 0 1 1 1 2 3 4 4 4 5 5 5 5 5 5 5 6 6 6 6 6 6 8 8 7 6 6 6 6 5 4 4 5 5 5 5 5 6
3 2 1 1 1 1 1 1 1 2 3 3 3 4 5 5 5 5 5 5 5 5 5 5 6 5 6 7 8 7 6 5 5 6 6 6 5 5 5 4 4 4 5
2 2 1 1 1 1 1 2 2 2 3 3 3 3 4 4 5 5 5 4 5 5 5 5 5 5 5 7 7 6 5 5 5 4 5 6 6 6 6 5 4 4 4
3 3 3 3 2 2 2 3 3 2 2 2 2 2 3 3 4 4 4 4 4 4 4 4 5 5 5 6 7 6 4 5 4 3 4 5 6 6 6 5 5 5 4
3 4 4 4 3 3 3 3 3 2 1 1 2 2 2 2 3 3 3 4 4 4 4 4 4 4 4 5 6 6 4 4 4 3 3 4 5 5 6 6 5 5 4
5 5 4 5 4 4 4 4 3 2 2 2 2 2 2 2 2 3 3 3 4 4 3 3 3 2 3 3 4 5 4 4 4 4 3 3 5 5 5 5 4 4 3
5 5 5 5 5 5 4 4 3 3 3 4 3 3 3 3 2 3 3 3 3 2 2 2 2 2 2 3 4 4 5 4 3 3 3 3 4 3 3 4 4 3 3
5 5 5 6 6 6 5 4 4 4 4 4 4 3 3 3 3 2 2 2 2 2 2 2 2 2 1 1 2 2 2 3 2 2 2 2 2 2 2 3 3 3 3
5 5 5 5 6 6 6 5 4 4 5 5 4 4 3 3 3 2 2 1 1 1 2 2 2 2 2 1 1 1 2 2 2 2 1 1 1 1 2 2 2 2 2
5 5 5 5 5 5 6 6 5 5 5 4 4 3 3 3 2 3 3 5 4 4 3 2 1 0 1 1 0 1 1 2 3 2 2 2 2 2 2 2 3 3 3
Wind_Direction
239 229 218 210 205 203 201 199 194 188 181 179 181 183 188 185 186 186 186 184 181 180 179 175 173 178 176 170 165 155 147 142 139 129 121 109 103 103 99 93 90 79 66
231 220 212 209 206 203 201 199 194 187 185 188 187 188 185 188 185 183 186 186 184 181 181 181 179 180 175 171 166 159 157 151 161 158 155 158 154 130 103 107 97 76 72
233 223 214 210 209 207 203 199 194 190 187 185 179 167 169 175 183 183 187 188 186 183 182 183 180 179 179 174 170 170 168 168 169 173 181 180 183 151 147 152 136 97 73
235 228 219 213 208 207 204 200 194 190 189 185 183 182 187 192 195 188 188 184 186 185 183 181 180 178 178 173 173 177 173 171 171 172 192 221 136 168 168 178 182 165 289
231 228 220 215 210 203 198 197 193 190 189 189 189 189 194 196 188 182 182 182 185 187 185 184 178 176 177 174 173 175 175 176 177 173 164 153 146 168 189 198 202 211 244
233 228 220 210 205 196 190 188 186 189 191 190 189 192 192 188 183 182 181 182 182 185 186 184 179 176 176 174 175 175 178 176 173 169 171 173 175 182 189 201 201 215 229
234 225 216 208 202 192 188 185 184 186 188 190 192 192 193 188 187 184 184 182 181 182 185 182 179 175 173 173 174 175 179 178 174 173 178 184 188 179 187 177 190 215 228
229 227 217 209 202 194 190 185 187 188 186 187 190 191 189 184 186 188 185 185 185 183 177 176 176 172 171 172 173 175 178 177 178 175 176 177 175 169 173 180 177 198 226
301 240 215 209 203 196 192 188 187 186 186 185 183 184 185 184 184 185 185 183 180 175 176 176 173 170 173 175 174 179 181 180 181 179 178 176 174 173 181 183 189 198 220
10 345 221 209 205 198 190 184 186 184 183 183 183 181 183 186 184 182 182 179 177 173 175 176 173 172 173 174 173 176 182 180 179 177 181 181 178 174 182 192 206 221 224
351 331 203 169 170 173 176 173 178 177 174 175 179 175 177 182 180 180 182 178 173 173 177 175 173 173 175 176 176 176 177 182 178 179 187 189 184 182 188 194 203 214 218
351 349 56 101 120 137 150 162 168 172 172 170 172 171 169 171 176 178 180 174 174 176 177 176 175 173 173 176 180 180 182 185 186 188 190 193 188 193 195 199 208 216 227
8 19 86 97 97 123 142 153 160 171 171 168 166 164 165 169 175 177 174 172 174 176 175 175 177 175 174 176 182 184 185 189 193 194 194 196 192 200 203 208 215 220 222
354 10 55 79 75 105 136 145 157 166 166 166 167 167 168 171 172 172 172 172 171 173 177 179 178 177 176 178 181 184 185 191 196 198 200 200 200 205 205 210 216 213 213
353 351 6 39 61 84 112 131 150 161 166 165 168 173 169 165 164 167 167 165 167 170 173 174 174 174 177 180 183 186 186 190 195 198 204 206 203 208 209 210 212 208 214
329 333 342 1 46 84 108 128 140 156 167 168 172 170 164 161 163 165 162 161 164 166 169 174 177 178 181 174 178 185 190 190 195 199 204 203 198 198 207 215 222 221 219
310 311 321 330 352 62 104 122 144 146 161 166 166 164 160 160 165 163 161 163 166 167 171 176 182 186 183 174 179 185 192 197 201 202 202 206 205 203 209 215 226 235 239
323 325 344 10 19 35 63 109 135 141 146 153 158 160 163 162 163 162 166 168 167 172 178 181 185 187 185 176 180 184 192 197 205 205 206 209 210 207 206 215 227 241 248
324 332 358 32 40 56 77 104 119 129 133 143 154 158 161 162 164 169 173 170 169 173 178 179 182 183 184 177 178 181 191 196 206 209 209 210 213 202 197 207 221 241 258
9 18 34 46 50 48 76 95 102 108 117 137 151 151 156 164 172 174 171 168 169 172 170 175 183 184 187 176 178 185 190 193 199 208 211 212 212 204 200 212 218 233 251
30 41 51 52 43 47 84 89 85 81 87 117 127 126 133 150 161 159 160 161 158 157 159 167 177 181 181 174 180 190 193 195 194 206 215 213 201 207 217 227 231 231 247
40 44 50 47 39 46 69 75 64 52 71 97 101 103 107 113 127 132 138 146 148 149 150 150 161 172 177 176 185 191 196 204 205 213 219 215 201 214 231 236 226 225 235
38 41 50 49 40 39 53 71 58 63 78 91 95 96 90 87 98 122 135 136 138 150 158 155 161 174 182 181 181 188 192 199 216 223 218 213 206 219 231 215 219 227 232
35 40 49 51 43 37 43 51 55 66 79 82 83 94 97 93 89 92 114 139 154 165 169 170 179 183 184 186 180 188 189 188 201 204 179 178 197 216 222 228 232 234 235
35 39 48 49 44 39 40 40 44 61 74 75 76 79 87 96 89 83 78 109 150 179 173 184 188 185 207 219 218 209 210 211 204 195 205 226 231 233 242 254 259 253 247
38 41 43 46 42 39 39 34 37 49 63 69 67 71 77 82 91 94 76 60 66 70 71 75 120 140 116 130 164 230 215 188 172 184 212 227 239 244 247 250 260 262 257
Height
1469 1470 1471 1473 1475 1478 1480 1482 1485 1488 1490 1492 1494 1497 1499 1502 1505 1507 1509 1512 1514 1516 1518 1520 1523 1525 1528 1530 1533 1535 1537 1539 1542 1543 1545 1547 1549 1551 1552 1553 1553 1554 1554
1464 1465 1467 1469 1471 1473 1475 1478 1480 1483 1486 1488 1491 1494 1496 1499 1501 1503 1506 1508 1511 1513 1515 1517 1520 1522 1525 1528 1530 1531 1534 1536 1539 1541 1543 1545 1548 1548 1550 1551 1552 1552 1553
1460 1461 1463 1464 1466 1468 1471 1473 1476 1479 1482 1485 1488 1490 1493 1495 1497 1499 1502 1505 1507 1510 1512 1514 1517 1519 1522 1524 1526 1529 1531 1533 1536 1538 1541 1543 1544 1546 1548 1549 1550 1551 1551
1456 1458 1459 1460 1462 1464 1467 1470 1472 1475 1478 1481 1483 1486 1488 1491 1493 1496 1499 1502 1504 1506 1509 1511 1513 1516 1519 1521 1524 1526 1528 1531 1533 1535 1538 1540 1540 1543 1545 1547 1548 1549 1549
1453 1454 1455 1456 1458 1460 1463 1465 1468 1471 1474 1476 1479 1482 1485 1488 1491 1493 1496 1498 1500 1503 1505 1507 1510 1513 1515 1518 1520 1523 1525 1527 1530 1532 1534 1536 1538 1540 1541 1543 1545 1546 1547
1449 1450 1452 1453 1455 1457 1459 1461 1464 1467 1470 1472 1475 1478 1481 1484 1487 1489 1492 1494 1496 1499 1501 1503 1506 1509 1512 1514 1517 1520 1522 1524 1527 1529 1532 1534 1535 1537 1538 1540 1541 1542 1543
1446 1447 1448 1449 1451 1453 1455 1457 1460 1463 1466 1468 1470 1473 1477 1480 1483 1486 1488 1490 1492 1495 1497 1500 1502 1505 1508 1511 1514 1517 1519 1522 1524 1526 1529 1531 1533 1535 1536 1537 1537 1539 1539
1444 1444 1445 1446 1448 1449 1451 1454 1456 1459 1461 1464 1467 1470 1473 1476 1479 1482 1485 1487 1490 1492 1495 1497 1500 1502 1505 1508 1511 1514 1516 1518 1520 1523 1525 1527 1529 1531 1533 1534 1535 1535 1536
1441 1442 1443 1444 1445 1446 1448 1450 1453 1455 1457 1460 1463 1466 1470 1473 1476 1479 1482 1485 1487 1489 1492 1494 1497 1499 1502 1505 1507 1510 1512 1515 1517 1519 1522 1524 1525 1527 1529 1531 1532 1533 1533
1440 1441 1441 1442 1443 1444 1446 1448 1450 1452 1454 1457 1460 1463 1467 1470 1473 1476 1479 1482 1484 1487 1489 1491 1494 1497 1499 1501 1504 1507 1509 1511 1513 1516 1518 1520 1522 1523 1525 1527 1528 1529 1530
1439 1440 1440 1441 1441 1443 1444 1445 1448 1450 1452 1454 1458 1461 1464 1467 1471 1473 1476 1479 1481 1484 1486 1489 1491 1494 1496 1498 1500 1503 1505 1508 1510 1512 1514 1516 1518 1520 1522 1523 1524 1525 1526
1439 1439 1439 1439 1440 1442 1443 1444 1446 1448 1450 1452 1455 1458 1462 1465 1468 1470 1473 1476 1478 1481 1483 1486 1488 1490 1492 1495 1497 1499 1502 1504 1506 1509 1511 1513 1515 1516 1518 1520 1521 1522 1522
1438 1438 1438 1439 1440 1441 1442 1444 1445 1447 1448 1451 1453 1456 1459 1462 1465 1468 1470 1473 1475 1478 1480 1482 1484 1487 1489 1492 1494 1496 1498 1501 1503 1506 1508 1509 1511 1513 1514 1516 1517 1518 1518
1438 1437 1437 1438 1439 1440 1441 1442 1444 1445 1447 1449 1451 1453 1456 1459 1462 1465 1467 1470 1472 1475 1477 1479 1481 1483 1485 1488 1491 1493 1495 1498 1500 1502 1504 1506 1507 1509 1511 1512 1513 1514 1514
1437 1437 1437 1437 1438 1439 1440 1441 1442 1444 1446 1448 1449 1451 1454 1457 1459 1462 1464 1466 1469 1471 1474 1476 1478 1480 1482 1485 1488 1490 1492 1494 1497 1499 1500 1502 1504 1505 1507 1508 1509 1510 1510
1436 1436 1436 1437 1437 1438 1439 1440 1441 1442 1444 1446 1448 1450 1452 1454 1456 1459 1461 1463 1466 1468 1471 1473 1475 1477 1480 1482 1485 1487 1489 1491 1493 1495 1496 1498 1500 1501 1503 1504 1505 1506 1507
1436 1436 1436 1436 1436 1437 1438 1439 1440 1441 1443 1444 1446 1448 1450 1451 1454 1456 1458 1461 1463 1466 1468 1470 1473 1475 1477 1480 1482 1484 1486 1488 1489 1491 1492 1494 1495 1497 1498 1500 1501 1502 1503
1435 1435 1435 1435 1436 1436 1437 1438 1439 1440 1441 1443 1444 1446 1448 1450 1452 1454 1456 1459 1461 1463 1466 1468 1470 1472 1474 1477 1479 1481 1482 1484 1485 1487 1488 1489 1491 1492 1493 1495 1496 1497 1498
1435 1434 1434 1435 1435 1435 1436 1437 1438 1439 1440 1442 1443 1445 1446 1448 1450 1452 1454 1456 1459 1461 1463 1465 1467 1469 1471 1473 1475 1477 1479 1480 1481 1482 1484 1485 1486 1487 1489 1490 1491 1491 1492
1435 1434 1434 1434 1434 1434 1435 1436 1437 1438 1440 1441 1442 1444 1445 1447 1448 1450 1452 1454 1456 1458 1460 1462 1464 1466 1468 1470 1472 1474 1475 1476 1477 1478 1480 1481 1482 1483 1484 1485 1486 1486 1487
1434 1434 1433 1433 1434 1434 1435 1435 1436 1438 1439 1440 1441 1443 1444 1446 1447 1449 1450 1452 1454 1456 1457 1459 1461 1463 1465 1467 1468 1470 1471 1472 1473 1474 1476 1477 1478 1479 1480 1481 1481 1481 1482
1434 1434 1433 1433 1434 1434 1434 1435 1436 1437 1438 1439 1440 1441 1443 1444 1445 1447 1448 1450 1452 1453 1455 1456 1457 1459 1461 1463 1464 1466 1467 1468 1469 1470 1471 1472 1474 1474 1475 1476 1476 1477 1477
1435 1435 1434 1434 1434 1434 1435 1435 1436 1437 1437 1438 1439 1440 1442 1443 1444 1446 1447 1448 1449 1451 1452 1453 1454 1456 1458 1460 1461 1462 1464 1465 1466 1467 1467 1468 1469 1470 1470 1471 1471 1472 1472
1436 1436 1435 1434 1434 1435 1435 1435 1436 1436 1437 1437 1438 1439 1441 1442 1443 1445 1446 1447 1448 1449 1450 1451 1452 1453 1455 1456 1457 1459 1460 1461 1462 1463 1464 1464 1465 1465 1466 1466 1466 1467 1467
1438 1437 1436 1436 1435 1435 1435 1436 1436 1436 1436 1437 1438 1439 1440 1441 1442 1444 1445 1446 1448 1449 1449 1450 1451 1451 1452 1454 1455 1455 1456 1457 1458 1459 1460 1460 1460 1460 1461 1461 1462 1462 1463
1439 1438 1438 1437 1437 1437 1436 1437 1437 1437 1437 1437 1438 1439 1440 1441 1442 1442 1444 1445 1446 1447 1448 1449 1450 1450 1451 1451 1452 1453 1454 1454 1455 1456 1455 1456 1456 1456 1457 1457 1457 1458 1458